Location: Newark
(46.7000°N, 60.6000°W)
Time: 13:58:49
(UTC+00:00)

Transit 2A - All Passes

Search period start: 31 October 2020 00:00
Search period end: 10 November 2020 00:00
Orbit: 593 x 965 km, 66.7° (Epoch: 30 October)

Date Brightness Start Highest point End Pass type
(mag) Time Alt. Az. Time Alt. Az. Time Alt. Az.
31 Oct - 03:14:32 10° SSE 03:19:36 26° ESE 03:24:38 10° NE night (unlit)
31 Oct - 04:56:03 10° SW 05:02:25 71° NW 05:08:39 10° NNE visible
31 Oct - 06:42:01 10° W 06:46:45 21° NNW 06:51:22 10° NNE visible
31 Oct - 08:30:59 10° NNW 08:32:27 11° N 08:33:54 10° N visible
31 Oct - 10:15:37 10° N 10:18:30 14° NNE 10:21:16 10° NE visible
31 Oct - 11:58:12 10° NNW 12:03:32 38° NE 12:08:20 10° ESE daylight
31 Oct - 13:41:37 10° NW 13:46:49 41° WSW 13:51:28 10° S daylight
01 Nov - 02:41:31 10° SE 02:45:41 19° ESE 02:49:51 10° ENE night (unlit)
01 Nov - 04:21:49 10° SSW 04:28:13 89° ESE 04:34:29 10° NE visible
01 Nov - 06:07:02 10° W 06:12:16 26° NW 06:17:19 10° NNE visible
01 Nov - 07:55:39 10° NNW 07:57:44 12° NNW 07:59:46 10° N visible
01 Nov - 09:41:36 10° N 09:43:50 12° NNE 09:45:59 10° NE visible
01 Nov - 11:24:07 10° NNW 11:29:08 29° NE 11:33:41 10° E daylight
01 Nov - 13:07:17 10° NW 13:12:47 59° WSW 13:17:40 10° SSE daylight
02 Nov - 02:09:11 10° SE 02:11:50 13° E 02:14:28 10° ENE night (unlit)
02 Nov - 03:47:44 10° SSW 03:54:04 68° ESE 04:00:17 10° NE night (unlit)
02 Nov - 05:32:11 10° WSW 05:37:49 32° NW 05:43:16 10° NNE visible
02 Nov - 07:20:18 10° NW 07:23:03 13° NNW 07:25:43 10° N visible
02 Nov - 09:07:34 10° N 09:09:08 11° N 09:10:40 10° NNE visible
02 Nov - 10:50:05 10° NNW 10:54:40 24° NE 10:58:53 10° E daylight
02 Nov - 12:33:01 10° NW 12:38:40 83° WSW 12:43:40 10° SSE daylight
02 Nov - 14:18:41 10° WNW 14:20:46 12° W 14:22:48 10° SW daylight
03 Nov - 03:13:51 10° S 03:19:59 50° ESE 03:25:59 10° NE night (unlit)
03 Nov - 04:57:28 10° WSW 05:03:26 40° NW 05:09:13 10° NNE visible
03 Nov - 06:45:00 10° NW 06:48:23 15° NNW 06:51:42 10° N visible
03 Nov - 08:33:26 10° N 08:34:24 10° N 08:35:21 10° NNE visible
03 Nov - 10:16:04 10° NNW 10:20:09 19° NNE 10:23:58 10° ENE visible
03 Nov - 11:58:50 10° NNW 12:04:29 72° NE 12:09:30 10° SE daylight
03 Nov - 13:43:21 10° WNW 13:46:57 18° WSW 13:50:19 10° SSW daylight
04 Nov - 02:40:11 10° S 02:45:56 37° ESE 02:51:36 10° NE night (unlit)
04 Nov - 04:22:54 10° SW 04:29:06 51° NW 04:35:08 10° NNE visible
04 Nov - 06:09:45 10° WNW 06:13:46 17° NNW 06:17:41 10° NNE visible
04 Nov - 07:58:57 10° N 07:59:40 10° N 08:00:24 10° N visible
04 Nov - 09:42:03 10° NNW 09:45:34 16° NNE 09:48:55 10° ENE visible
04 Nov - 11:24:42 10° NNW 11:30:14 52° NE 11:35:11 10° SE daylight
04 Nov - 13:08:36 10° NW 13:13:04 26° WSW 13:17:09 10° SSW daylight
05 Nov - 02:06:45 10° SSE 02:11:58 27° ESE 02:17:06 10° NE night (unlit)
05 Nov - 03:48:28 10° SW 03:54:50 67° NW 04:01:00 10° NNE night (unlit)
05 Nov - 05:34:37 10° WNW 05:39:13 21° NNW 05:43:40 10° NNE visible
05 Nov - 07:23:47 10° NNW 07:24:56 10° N 07:26:04 10° N visible
05 Nov - 09:08:04 10° N 09:10:58 14° NNE 09:13:44 10° NE visible
05 Nov - 10:50:36 10° NNW 10:55:55 39° NE 11:00:42 10° ESE daylight
05 Nov - 12:34:06 10° NW 12:39:06 38° WSW 12:43:39 10° S daylight
06 Nov - 01:33:38 10° SSE 01:38:01 20° ESE 01:42:22 10° ENE night (unlit)
06 Nov - 03:14:13 10° SSW 03:20:37 87° WNW 03:26:51 10° NNE night (unlit)
06 Nov - 04:59:36 10° W 05:04:43 25° NW 05:09:38 10° NNE visible
06 Nov - 06:48:24 10° NNW 06:50:13 11° NNW 06:51:59 10° N visible
06 Nov - 08:34:04 10° N 08:36:18 12° NNE 08:38:27 10° NE visible
06 Nov - 10:16:32 10° NNW 10:21:32 30° NE 10:26:04 10° ESE visible
06 Nov - 11:59:43 10° NW 12:05:06 54° WSW 12:09:53 10° SSE daylight
07 Nov - 01:01:06 10° SE 01:04:09 14° ESE 01:07:10 10° ENE night (unlit)
07 Nov - 02:40:06 10° SSW 02:46:27 72° ESE 02:52:39 10° NE night (unlit)
07 Nov - 04:24:43 10° W 04:30:15 30° NW 04:35:36 10° NNE night (unlit)
07 Nov - 06:13:01 10° NW 06:15:31 12° NNW 06:17:58 10° N visible
07 Nov - 08:00:05 10° N 08:01:36 11° N 08:03:04 10° NNE visible
07 Nov - 09:42:29 10° NNW 09:47:05 24° NE 09:51:18 10° E visible
07 Nov - 11:25:27 10° NW 11:31:01 78° WSW 11:35:55 10° SSE daylight
07 Nov - 13:11:40 10° W 13:13:02 11° W 13:14:23 10° WSW daylight
08 Nov - 02:06:11 10° S 02:12:21 54° ESE 02:18:23 10° NE night (unlit)
08 Nov - 03:49:58 10° WSW 03:55:52 38° NW 04:01:33 10° NNE night (unlit)
08 Nov - 05:37:39 10° NW 05:40:51 14° NNW 05:43:58 10° N visible
08 Nov - 07:26:07 10° N 07:26:53 10° N 07:27:38 10° NNE visible
08 Nov - 09:08:28 10° NNW 09:12:34 20° NNE 09:16:24 10° ENE visible
08 Nov - 10:51:15 10° NNW 10:56:50 76° NE 11:01:48 10° SE daylight
08 Nov - 12:35:57 10° WNW 12:39:13 17° WSW 12:42:19 10° SW daylight
09 Nov - 01:32:27 10° S 01:38:18 39° ESE 01:44:02 10° NE night (unlit)
09 Nov - 03:15:22 10° WSW 03:21:31 48° NW 03:27:27 10° NNE night (unlit)
09 Nov - 05:02:24 10° WNW 05:06:14 17° NNW 05:09:58 10° NNE visible
09 Nov - 08:34:27 10° NNW 08:38:01 16° NNE 08:41:22 10° ENE visible
09 Nov - 10:17:06 10° NNW 10:22:36 55° NE 10:27:30 10° SE visible
09 Nov - 12:01:06 10° NW 12:05:21 24° WSW 12:09:15 10° SSW daylight
